Theta_e
318 317 315 314 315 314 313 312 312 311 311 315 313 317 315 311 308 320 326 317 315 308 303 311 307 302 302 306 304 306 305 303 303 302 304 303 305 303 301 301 300 302 301 300 299 300 297 299 296 299 299 298 300 303 303 303 303 302 298 302 303 313 299 298 298 302 300 302 305 305 307 304 301 302 302 301 298 300 297 297 302 303 304 300 300 298 304
318 317 315 314 314 313 313 312 312 312 311 310 312 314 312 311 311 312 317 319 316 306 302 300 301 300 304 304 303 305 304 303 302 302 303 302 302 301 301 302 303 301 304 302 299 301 296 301 299 299 300 296 303 302 302 303 299 299 298 299 304 297 299 298 293 291 293 295 297 298 302 302 299 297 301 303 303 303 303 303 306 299 304 302 300 295 302
318 317 315 314 314 313 312 312 312 312 312 311 313 312 314 314 316 316 311 315 311 302 304 306 303 300 302 301 300 301 302 304 303 302 302 304 303 303 300 302 303 302 303 302 302 302 300 299 300 299 299 298 304 302 302 303 300 305 310 319 308 302 301 298 290 287 285 285 286 288 291 294 298 301 301 304 302 301 299 294 298 292 303 306 301 300 308
318 317 315 314 314 314 312 312 312 312 312 310 314 318 313 312 304 310 309 314 308 310 305 306 303 303 305 301 300 301 299 302 304 304 302 304 304 303 303 304 303 301 301 301 300 300 303 301 300 303 300 300 302 302 303 302 302 313 319 312 304 303 303 303 298 293 291 294 296 303 305 299 294 298 301 302 302 302 302 301 297 295 302 303 304 305 306
318 317 315 315 315 313 313 312 312 312 311 310 312 318 315 317 309 305 302 309 307 304 306 303 303 305 304 302 301 300 300 301 300 303 303 303 302 303 302 301 300 300 300 300 299 301 301 303 301 300 297 301 300 302 303 302 307 317 311 309 302 302 296 303 302 303 301 299 298 300 302 297 298 298 299 300 300 301 300 295 296 303 303 295 306 308 306
318 317 316 315 314 314 313 312 312 311 310 309 316 317 323 303 306 307 314 300 297 301 299 303 301 302 305 300 301 300 299 300 298 302 303 304 302 299 306 302 303 303 301 302 300 301 302 302 298 303 300 300 302 300 302 301 307 309 303 305 301 299 295 298 298 299 301 301 300 301 300 299 299 299 299 299 300 300 299 301 303 306 301 299 307 308 306
319 317 316 316 314 314 314 313 312 311 310 310 321 319 318 313 312 309 313 305 303 303 302 303 302 300 301 303 302 299 298 297 299 298 301 301 302 301 301 299 301 302 304 304 301 302 300 298 304 303 302 300 301 299 303 302 303 302 301 301 304 299 295 300 299 297 299 300 299 300 298 298 299 299 298 299 299 298 299 301 304 309 307 309 310 308 308
319 317 316 316 315 314 314 313 312 311 309 320 329 319 308 309 310 308 314 312 307 306 302 303 303 299 307 305 299 301 300 298 300 301 301 300 300 303 301 301 302 302 304 307 301 303 305 306 302 307 301 301 302 301 301 297 302 302 299 300 306 297 298 302 298 295 296 298 300 301 299 298 296 298 299 299 298 298 299 302 308 311 310 310 309 307 306
319 317 316 316 315 314 314 313 312 311 310 324 323 318 315 314 319 319 313 307 304 305 304 305 308 300 305 303 299 303 299 298 300 299 303 301 300 302 299 302 303 304 303 302 302 305 310 306 304 305 306 299 305 301 303 303 300 302 300 302 306 301 298 300 298 292 292 297 297 298 298 298 297 297 297 298 297 296 299 300 302 304 306 308 308 304 305
319 317 316 316 316 315 314 313 313 311 312 321 322 316 321 316 320 322 318 310 313 303 303 307 306 299 303 302 303 301 299 302 305 299 302 303 304 304 303 302 304 302 302 300 301 303 303 303 304 304 302 302 303 303 301 300 301 300 301 303 297 300 299 294 295 290 292 296 297 296 298 296 291 295 295 298 300 300 300 302 307 307 310 306 303 303 310
319 317 316 316 316 316 316 314 314 311 314 314 316 319 319 313 313 316 318 309 308 307 306 304 303 306 304 303 304 303 301 302 304 301 301 303 302 306 307 306 304 300 303 306 305 303 304 304 304 304 303 303 301 301 301 302 302 301 301 300 300 302 299 296 299 291 291 295 295 296 294 284 285 299 300 300 297 297 298 298 300 306 308 305 310 311 313
319 317 316 316 316 316 315 315 314 311 311 314 317 319 323 321 319 321 316 307 305 308 307 300 301 309 302 302 303 303 302 301 300 312 301 303 305 308 307 307 310 300 306 308 307 305 306 306 304 305 303 303 302 302 302 301 300 305 302 300 301 302 299 296 299 293 293 294 296 289 283 285 301 301 302 302 301 300 299 300 304 307 311 311 311 312 313
318 317 316 316 316 316 315 315 315 313 311 313 316 318 325 326 322 319 318 313 307 309 301 301 308 303 303 303 303 303 303 303 304 308 305 306 304 304 305 305 304 303 309 306 305 305 301 302 302 303 301 305 301 301 300 299 301 301 299 301 302 297 297 296 295 295 296 292 290 280 285 298 299 299 301 306 303 302 300 301 304 309 311 311 310 311 312
318 316 316 316 316 316 315 316 315 314 312 311 314 319 324 325 319 318 317 312 310 312 306 305 303 303 305 304 304 302 304 303 304 305 302 306 304 304 305 306 305 309 308 307 309 308 303 299 295 297 298 301 301 299 300 300 300 302 302 302 302 302 300 299 294 298 289 292 291 291 298 299 298 301 301 299 297 299 298 293 299 309 311 311 311 311 311
318 316 315 316 316 316 316 315 315 315 314 310 315 321 329 327 326 323 321 320 310 310 310 301 306 306 304 305 304 305 306 307 302 305 305 307 306 305 305 306 308 306 308 307 305 307 301 301 295 293 295 293 288 292 301 299 304 303 302 302 303 303 296 299 293 295 298 290 287 290 288 286 292 302 305 304 304 304 303 300 298 308 311 312 311 309 310
318 316 315 316 316 316 316 315 315 314 313 310 316 320 326 332 329 328 323 319 315 303 306 309 309 308 308 307 304 305 306 305 305 305 303 309 306 306 305 308 307 306 308 307 309 304 303 297 293 294 291 293 300 297 295 301 298 299 303 305 303 304 303 301 295 293 293 291 286 286 286 293 300 301 304 304 304 304 304 295 290 303 309 312 311 310 309
318 316 315 316 316 316 315 315 315 314 314 310 311 315 323 333 328 324 321 321 318 308 315 312 310 307 308 308 310 306 308 305 308 304 302 305 309 307 305 308 310 309 309 306 306 301 297 297 297 296 298 303 296 294 299 295 296 296 301 299 302 299 296 296 293 293 294 292 288 286 296 292 302 305 302 302 304 306 298 285 287 302 305 310 311 310 309
317 316 315 316 316 316 315 315 315 315 314 312 311 315 319 328 333 328 325 320 312 311 309 309 306 306 308 311 308 308 311 313 311 311 306 311 312 309 305 307 306 310 313 302 303 300 298 296 293 293 291 304 304 299 283 293 287 293 292 293 292 293 294 293 289 289 291 294 290 292 296 303 307 303 302 301 304 300 287 281 294 308 308 310 309 308 308
317 316 315 316 316 315 315 315 315 315 315 310 313 320 325 332 333 330 324 319 315 308 314 317 313 309 313 314 314 312 309 308 310 306 306 305 308 316 309 309 308 303 310 302 302 298 296 297 302 298 294 298 302 290 296 287 285 296 299 294 294 293 294 295 293 288 288 291 287 287 297 305 305 303 303 305 303 287 287 302 311 308 307 309 310 308 307
317 315 315 315 315 315 315 315 314 315 315 312 311 314 318 323 332 330 319 314 315 310 313 312 312 310 311 309 309 310 310 310 311 307 305 303 311 312 307 301 305 308 307 305 298 301 297 294 299 301 294 295 298 304 293 295 299 293 295 298 294 294 290 288 288 291 291 292 289 286 284 300 312 306 305 308 297 299 308 308 308 309 308 309 309 309 309
317 315 315 315 315 315 315 314 314 314 315 314 310 314 319 335 335 333 329 324 315 309 315 316 316 314 313 311 311 311 311 310 312 307 309 310 317 310 294 301 302 303 303 305 296 297 301 296 297 298 302 299 299 298 290 292 294 302 298 298 296 304 292 291 293 297 286 286 285 286 298 303 311 307 299 306 307 309 309 307 304 308 308 307 307 307 308
317 315 314 314 315 315 315 314 314 314 314 314 311 316 319 327 330 329 329 329 319 313 312 316 317 315 314 313 312 313 312 312 315 315 312 309 314 312 311 312 311 309 311 309 304 303 304 303 304 299 296 299 304 295 299 289 286 297 304 300 287 302 298 301 292 299 296 294 296 300 307 306 308 310 309 310 313 313 314 310 308 306 306 309 307 307 308
317 315 314 314 315 315 315 314 314 314 314 314 313 316 317 320 323 329 328 320 324 320 321 319 317 316 316 316 314 314 320 317 319 322 322 313 311 313 310 309 309 315 316 314 307 305 304 303 300 303 299 301 299 297 300 297 292 297 293 300 297 305 308 307 302 300 308 307 305 308 308 307 308 311 311 311 310 312 312 311 307 308 309 309 308 308 308
317 315 314 314 315 315 314 314 314 314 314 314 313 312 315 319 320 325 321 321 319 313 316 318 313 310 311 311 313 313 313 314 324 320 320 323 308 308 312 314 318 315 313 316 315 308 306 306 304 304 298 302 304 296 291 292 297 301 299 297 299 304 305 303 297 304 294 290 303 303 306 307 308 309 312 312 313 311 311 309 309 308 309 309 311 311 310
316 314 314 314 314 314 314 314 314 313 313 313 313 316 318 320 328 325 318 310 312 311 303 309 312 315 316 318 315 315 315 322 316 322 318 318 317 310 308 317 319 312 313 315 318 313 313 303 303 302 297 304 304 293 302 297 296 303 294 298 300 299 307 301 302 301 295 299 305 305 309 308 309 308 308 309 310 310 311 310 310 310 310 310 310 310 309
316 315 314 314 314 314 314 313 313 313 313 313 313 313 316 319 325 328 326 324 322 317 308 306 312 318 320 316 313 315 318 316 315 315 314 316 314 314 319 321 320 320 320 321 315 312 308 306 307 305 300 300 309 299 299 304 302 306 300 299 304 304 305 298 303 297 301 304 307 309 308 307 309 310 311 310 310 308 307 309 309 309 309 308 309 309 309
316 315 313 313 313 314 313 313 313 313 313 313 312 314 316 320 325 326 321 319 313 309 310 306 312 316 317 314 317 318 317 315 315 316 318 315 314 318 317 315 315 317 318 316 316 312 310 307 305 301 306 305 308 306 305 303 303 301 299 305 308 304 299 303 302 297 297 298 301 306 298 298 303 306 308 311 313 311 309 308 308 308 308 308 307 308 309
316 315 314 314 314 314 313 313 313 313 313 313 313 315 319 320 325 331 327 325 318 308 306 305 306 312 317 312 317 318 317 317 315 315 315 313 314 314 318 319 315 314 315 312 308 308 306 303 302 309 310 308 303 302 307 306 306 302 301 303 309 304 304 303 300 298 297 304 308 306 306 304 307 308 311 311 312 310 311 311 310 308 310 309 308 306 307
316 314 313 313 313 313 313 312 312 313 313 311 314 316 320 323 326 328 323 329 326 317 314 312 314 313 307 314 318 316 319 320 316 318 316 313 313 318 315 315 316 316 317 315 313 311 308 308 312 307 306 309 306 301 302 297 297 295 303 308 309 309 311 309 308 308 308 310 309 310 307 305 308 311 311 312 313 311 310 312 312 312 310 311 309 309 307
315 314 313 313 313 312 311 311 312 312 312 312 315 318 318 318 325 321 319 323 325 322 312 308 304 312 317 315 314 316 316 317 315 314 314 316 318 317 317 316 315 317 315 312 312 306 308 308 310 311 313 317 307 304 299 299 296 300 309 310 309 312 311 312 312 307 306 312 312 311 310 309 311 311 312 312 313 314 312 312 312 313 313 314 312 312 312
315 313 313 313 312 312 311 311 312 312 311 313 316 314 312 308 317 321 315 320 327 322 316 314 307 312 311 321 319 313 314 315 321 316 317 318 318 318 319 319 317 317 311 312 310 309 309 306 308 309 312 312 309 302 299 297 295 298 306 308 308 309 309 310 312 312 312 312 313 315 312 310 311 310 309 311 312 311 311 312 314 317 316 315 313 314 311
314 313 313 312 312 311 311 311 311 312 311 312 314 314 313 314 316 316 314 317 325 320 314 308 306 308 309 315 317 317 315 316 318 318 318 319 317 321 318 318 316 319 315 311 312 309 306 309 308 307 306 311 309 303 302 299 296 298 306 308 310 311 312 310 311 312 313 313 311 308 308 308 310 307 306 311 311 313 312 312 312 312 315 314 313 312 314
314 313 312 311 311 311 311 311 311 311 311 312 311 311 311 311 311 312 316 323 323 319 319 311 303 307 306 311 318 316 316 316 315 314 314 320 317 318 314 319 317 316 319 312 305 303 310 310 310 305 309 312 305 303 300 298 299 305 307 309 308 309 310 311 311 312 312 311 310 305 303 306 307 310 311 311 312 312 312 312 311 311 311 310 310 310 312
313 312 311 311 311 311 311 312 312 311 311 311 315 316 319 314 313 310 319 324 319 321 320 310 304 304 305 318 307 316 318 310 312 314 308 318 321 316 313 314 314 309 312 308 311 310 311 309 305 306 306 304 307 302 294 300 305 308 309 309 309 310 309 311 310 309 309 310 311 311 310 310 312 312 311 311 311 312 313 312 311 310 309 309 309 310 310
312 312 311 312 312 312 313 312 313 314 316 319 319 319 317 312 312 314 319 322 312 311 310 312 312 304 302 304 304 311 318 311 308 313 309 314 319 312 314 310 310 304 308 317 309 307 305 306 310 302 299 305 301 292 298 301 304 306 307 308 309 309 309 306 308 308 309 311 311 311 311 311 309 308 308 309 309 310 310 310 310 310 308 308 309 310 310
312 312 312 313 313 313 313 314 312 315 316 316 318 321 319 318 314 321 325 327 320 312 311 310 309 304 304 299 299 311 318 308 314 314 313 314 312 317 314 310 302 308 314 308 304 307 303 311 305 297 304 296 293 297 301 305 305 306 305 304 307 307 306 306 307 308 309 310 310 310 310 309 307 308 308 308 308 309 310 309 309 310 309 308 308 310 309
311 312 313 312 312 314 315 316 322 319 318 318 318 318 316 320 322 324 324 320 323 324 312 309 306 306 306 305 309 315 312 303 313 310 311 308 306 313 310 307 301 308 307 305 304 302 306 313 305 299 298 292 297 302 303 304 305 305 304 306 307 309 307 308 309 307 306 307 308 307 307 306 306 307 306 306 306 307 307 307 307 308 308 309 309 311 311
312 312 313 314 315 313 314 315 318 319 318 316 317 317 316 316 313 314 314 311 316 315 314 313 305 310 312 307 302 314 310 307 311 305 308 311 306 306 311 306 306 306 297 300 304 310 307 305 301 298 298 300 303 303 303 305 305 306 308 308 307 307 308 308 308 307 304 302 302 303 303 303 303 305 305 305 305 305 306 308 309 309 309 310 311 310 311
310 313 314 316 314 310 314 317 321 318 319 319 320 314 313 317 313 309 309 314 313 307 313 310 307 311 309 306 309 314 310 309 306 308 301 309 305 300 308 299 307 305 294 299 302 310 299 299 300 298 295 297 298 299 304 303 303 303 304 305 305 306 306 304 305 304 303 302 303 304 303 301 301 302 304 304 305 306 307 308 308 309 309 309 310 310 310
314 313 314 315 312 316 322 319 318 319 319 314 317 314 307 314 307 300 314 303 303 314 313 305 313 312 311 307 306 307 316 309 301 303 305 307 311 301 304 303 304 300 290 293 298 307 298 289 296 293 291 297 298 302 302 304 302 304 305 305 305 307 307 306 306 306 306 305 305 304 305 304 304 304 303 304 304 304 305 307 309 309 309 308 310 308 308
315 317 318 313 317 322 319 321 320 318 315 313 312 312 309 299 310 314 310 304 304 306 313 310 313 311 311 312 311 305 317 319 316 315 312 304 314 311 303 298 307 297 294 292 302 304 301 296 294 290 293 297 298 301 302 303 303 305 305 307 307 306 306 306 306 306 305 304 305 304 305 305 305 305 305 305 304 304 305 306 308 309 310 309 309 309 309
315 313 316 318 322 327 324 318 317 314 314 316 304 296 301 304 312 309 312 300 301 309 312 313 305 309 311 308 310 312 314 321 316 311 307 301 310 305 301 302 304 295 289 300 305 301 297 286 287 289 297 299 300 301 302 302 303 303 303 304 305 306 306 305 304 305 305 304 304 304 304 304 304 304 305 305 305 305 306 307 308 310 310 310 310 309 308
312 313 316 317 320 316 319 305 313 312 296 294 293 289 299 295 304 303 304 312 317 310 311 317 313 319 318 320 314 315 314 319 312 311 306 303 308 307 301 299 298 289 296 305 301 296 289 287 288 292 298 301 302 303 304 304 305 305 305 305 305 305 305 303 303 303 304 303 302 301 302 302 302 303 305 305 305 305 306 309 310 310 311 310 308 308 307
318 319 316 315 311 312 314 293 313 306 294 296 293 289 297 296 302 305 302 305 311 308 313 308 308 309 303 313 310 311 314 316 314 311 307 311 305 301 298 291 294 303 306 299 297 289 290 292 291 296 300 303 303 303 304 303 302 302 302 303 304 303 303 302 302 301 301 302 302 302 303 303 303 303 304 304 305 304 306 308 310 311 310 309 307 306 306
312 312 310 305 297 304 296 286 309 299 289 295 298 299 303 298 302 305 303 313 309 306 311 312 312 309 306 315 316 313 312 306 314 305 300 305 300 302 296 294 301 300 295 290 293 292 291 288 296 298 300 300 301 302 303 303 303 302 301 301 301 302 302 301 301 300 300 301 301 302 301 302 302 303 303 303 304 305 305 306 309 307 308 307 306 306 307
311 302 298 293 289 292 295 291 293 292 302 305 303 307 305 306 306 305 311 312 310 313 310 313 314 313 306 313 306 306 311 310 303 304 307 304 296 293 301 305 302 293 292 291 287 283 288 292 295 297 300 301 301 302 302 302 302 303 301 300 301 302 302 302 301 301 301 301 302 302 301 302 302 301 302 303 304 306 307 308 309 306 308 307 305 306 308
311 314 302 297 292 296 307 292 296 300 304 310 310 309 309 308 311 312 314 315 313 313 317 319 316 314 306 309 308 310 309 309 303 306 305 297 296 298 304 296 290 292 286 282 285 288 291 294 297 299 301 301 301 302 301 301 302 301 301 301 302 301 302 302 301 301 301 302 302 301 301 301 302 302 302 302 303 307 308 311 309 308 307 307 307 307 307
299 307 307 292 291 296 294 300 306 310 312 311 312 314 313 315 312 310 314 316 319 313 312 314 308 313 306 314 308 300 302 307 302 304 303 300 301 296 289 293 291 295 292 289 288 293 293 296 298 301 301 302 301 300 301 301 301 301 301 301 301 301 302 302 302 302 303 302 302 302 302 302 302 302 302 303 304 306 308 307 307 308 306 307 306 306 306
313 300 296 295 301 303 303 308 309 307 311 311 312 311 312 311 310 310 314 318 315 316 313 312 311 309 304 307 304 298 297 303 291 291 300 299 292 287 288 285 288 285 291 294 292 294 295 298 301 302 301 301 301 301 301 301 301 301 301 301 301 301 302 302 303 303 303 302 302 302 302 302 302 302 303 305 306 307 308 308 307 307 307 306 306 306 305
301 300 307 301 302 303 305 308 306 304 308 309 313 310 314 311 310 314 318 317 319 317 314 312 316 304 306 303 292 297 292 302 300 292 295 291 293 295 293 287 288 289 290 294 294 296 299 301 301 301 301 301 302 301 301 301 302 302 302 302 303 303 302 303 303 303 303 302 302 302 303 302 302 303 304 304 306 306 306 307 306 306 305 305 304 304 304
312 306 302 309 302 302 304 301 302 302 305 306 309 309 314 312 312 313 318 317 316 312 312 303 305 303 294 292 289 287 290 302 298 295 292 293 298 294 291 289 291 293 294 297 298 299 301 301 301 300 301 301 301 302 302 302 302 302 303 303 303 303 303 303 303 303 303 303 303 304 303 302 303 305 304 305 305 303 304 305 303 303 304 304 304 304 304
297 295 300 305 308 307 307 314 313 310 310 310 311 313 315 310 316 317 321 317 311 305 302 309 303 295 290 289 298 301 303 297 293 295 294 295 298 294 292 293 294 296 296 297 298 300 301 302 303 302 302 302 302 302 302 302 302 302 302 302 303 303 303 303 303 303 303 303 304 303 303 304 304 304 305 304 304 303 301 301 303 303 303 304 305 305 306
Wind_Speed
19 20 20 20 20 19 19 20 20 21 23 7 6 5 3 3 6 13 0 4 4 4 5 2 3 4 2 3 5 4 1 5 3 5 4 3 4 4 4 8 7 4 4 3 6 12 5 5 5 4 3 6 6 6 9 9 9 4 5 8 4 10 1 5 5 1 4 6 9 4 1 4 3 3 4 4 2 9 5 3 5 8 7 8 3 5 5
18 19 20 20 20 19 19 18 17 17 16 6 7 3 3 6 6 6 2 4 5 5 2 2 4 4 2 3 4 2 5 7 8 7 6 7 6 5 4 6 3 4 5 6 5 5 2 2 2 1 4 3 5 7 7 8 5 5 0 1 7 3 3 1 2 2 2 8 8 8 7 3 1 3 3 4 2 6 1 4 1 5 4 14 6 7 4
18 19 20 20 20 20 19 18 16 15 13 9 3 3 5 6 5 6 3 5 4 5 2 2 0 4 2 4 3 7 3 5 6 7 6 6 4 4 6 6 5 2 5 6 4 3 4 2 5 3 4 2 2 5 6 6 3 3 2 6 6 1 2 4 4 4 3 2 1 2 2 4 3 4 6 3 10 12 7 5 5 6 4 4 8 7 6
17 19 20 20 20 21 21 19 17 15 12 9 3 3 4 3 4 5 2 1 6 1 4 3 6 2 1 2 2 4 6 5 1 4 3 4 3 1 6 7 5 7 5 1 5 10 7 1 1 1 2 1 1 4 4 4 3 6 9 7 4 0 2 3 4 2 2 2 4 6 7 3 3 4 3 6 11 7 4 3 6 4 2 5 7 18 13
17 19 20 20 20 21 22 21 21 17 13 6 2 3 3 4 4 2 5 5 5 1 1 4 5 1 3 1 5 3 2 2 5 4 1 1 6 1 2 5 5 6 1 1 2 12 6 12 6 4 6 1 2 4 4 5 6 10 3 10 2 2 4 2 4 1 2 4 6 9 7 5 9 9 2 5 7 5 3 5 4 5 11 6 3 16 17
18 19 19 19 20 21 22 22 24 24 17 6 2 4 2 3 4 4 0 1 3 4 5 7 5 3 1 3 5 5 5 5 5 5 4 3 4 5 2 6 1 7 10 6 7 5 9 3 4 3 3 2 1 1 6 6 6 5 6 6 4 2 2 7 10 2 3 6 3 4 7 8 11 9 6 1 4 5 3 3 3 10 8 10 9 9 14
18 19 19 20 20 21 22 23 24 26 27 6 3 1 4 5 4 5 10 5 4 3 4 7 4 7 7 2 6 5 6 5 3 6 3 5 2 6 2 8 7 7 6 3 4 5 3 4 4 3 3 4 1 1 1 7 10 6 4 4 1 2 2 6 7 9 6 5 2 8 10 6 9 7 9 7 9 7 3 2 6 10 9 15 12 10 12
18 19 19 20 20 20 21 22 24 27 30 12 2 4 6 6 6 5 10 8 4 2 4 4 1 6 2 1 4 5 5 8 6 7 8 3 3 5 5 4 3 4 3 4 4 4 3 0 2 2 8 4 4 3 4 2 5 7 4 4 2 3 2 8 5 4 7 8 5 1 2 6 5 5 6 6 6 6 8 5 14 11 14 13 13 15 10
19 18 18 19 19 19 20 20 23 26 24 5 6 4 6 6 4 4 5 6 4 3 5 1 2 4 2 1 2 1 4 6 3 6 7 9 5 5 5 3 7 9 10 8 7 4 1 4 4 4 1 2 1 2 2 3 4 5 3 2 2 2 2 3 1 4 4 5 3 3 2 4 3 2 5 4 1 4 1 2 6 4 8 13 13 11 10
17 17 18 19 18 18 18 18 20 23 21 4 5 5 6 6 5 5 3 3 3 3 2 1 2 4 3 4 4 4 7 5 8 3 3 5 6 7 8 5 3 6 7 7 6 8 8 7 6 3 6 4 2 2 3 3 3 3 2 2 3 2 1 2 1 0 2 6 8 5 2 2 3 2 3 4 2 3 1 0 2 5 14 13 9 6 10
18 17 17 18 18 17 17 17 17 19 12 6 5 4 6 7 7 7 4 4 4 6 3 4 4 2 4 1 3 1 5 4 6 3 1 3 6 4 7 8 4 5 3 2 3 4 3 4 3 3 3 0 2 2 2 3 2 2 3 2 2 0 4 2 3 1 2 3 9 0 0 3 2 2 7 4 6 5 1 2 5 8 7 3 8 14 13
17 17 16 18 18 16 16 16 15 15 10 4 3 4 5 5 4 3 4 4 5 7 0 3 4 1 4 4 4 6 7 6 5 2 6 6 8 7 5 3 3 3 2 2 2 3 1 1 3 1 3 2 2 5 4 2 5 1 1 3 3 2 1 2 2 2 2 7 5 5 3 2 0 4 6 8 4 5 3 4 5 7 13 17 13 12 11
17 15 16 16 18 16 16 15 15 15 14 7 3 3 5 6 3 3 3 3 4 7 5 5 1 2 3 4 8 7 7 4 4 3 4 3 5 6 6 4 4 5 4 2 1 2 4 2 1 3 3 1 1 3 4 3 3 2 3 1 2 4 3 3 1 1 2 3 2 3 2 1 5 4 4 4 7 4 6 10 9 9 14 15 13 12 10
15 15 15 16 17 17 17 16 16 15 15 11 5 4 5 5 5 5 4 3 5 8 5 3 4 6 5 8 3 6 5 7 4 6 4 2 6 5 5 5 4 1 1 2 1 2 3 1 1 1 1 0 1 1 2 5 3 2 0 5 4 5 2 2 2 1 2 0 2 1 0 1 3 1 2 4 3 4 4 7 4 5 7 9 12 10 10
15 14 14 15 16 16 16 16 16 17 17 16 4 5 4 5 4 2 4 3 5 7 3 4 2 5 6 3 4 1 2 2 3 1 4 3 5 7 7 5 2 3 3 3 1 1 2 2 2 4 2 2 2 1 1 1 3 2 6 3 2 2 2 0 1 1 0 1 3 1 2 2 2 1 1 3 6 8 6 6 4 4 9 6 8 8 12
14 13 13 14 16 16 17 16 16 16 17 18 5 5 5 3 4 2 2 3 3 3 3 5 6 3 2 1 2 2 2 1 3 3 2 2 5 3 3 3 4 5 3 1 0 2 2 1 2 0 2 2 1 2 1 3 2 4 1 1 2 1 0 1 2 2 5 2 1 0 0 1 6 3 5 7 7 8 6 4 1 1 7 9 5 7 8
13 12 13 13 15 15 16 16 15 15 14 15 6 6 3 5 4 4 4 3 2 3 12 4 2 3 2 1 0 1 2 2 3 1 1 1 2 1 6 2 0 2 4 2 1 1 2 2 3 1 1 1 2 1 2 0 1 2 3 5 2 2 1 1 2 2 2 2 1 0 2 1 1 3 5 7 7 5 6 3 1 2 2 8 8 7 10
13 11 12 13 14 15 15 15 16 14 14 14 6 4 4 5 3 5 2 3 4 4 3 7 9 5 3 1 4 4 4 2 2 2 3 0 1 2 4 1 2 2 1 1 1 2 3 3 2 1 1 1 2 2 0 1 1 1 3 4 3 1 2 1 3 2 4 2 2 2 2 1 0 4 4 4 4 4 7 4 2 5 3 5 9 14 14
12 11 11 12 13 14 14 14 14 16 15 16 10 4 4 2 4 3 2 3 2 3 8 12 4 4 0 5 2 3 3 3 0 2 2 1 1 0 4 3 2 1 1 0 3 1 2 2 2 1 2 0 0 1 3 1 2 1 0 3 2 3 1 2 1 3 2 2 3 1 1 1 4 5 7 4 2 2 4 1 3 3 10 12 12 12 11
12 10 11 11 12 13 13 13 14 14 15 14 9 3 7 9 4 4 4 3 2 4 8 6 8 9 6 3 3 1 3 1 1 0 3 1 3 2 2 1 2 1 1 2 0 1 2 3 1 1 2 2 0 1 2 2 1 1 0 1 1 2 3 2 4 1 2 1 2 1 1 2 1 3 4 4 3 2 0 2 6 8 9 8 8 9 7
12 10 10 10 11 12 11 12 13 13 14 13 9 4 5 1 3 4 3 2 3 5 3 9 12 10 9 7 7 6 3 2 2 3 5 2 2 1 1 2 1 1 1 1 2 2 1 3 5 1 1 2 1 1 0 1 2 1 2 0 1 1 1 1 1 1 2 4 2 1 1 3 4 5 3 0 3 3 4 4 5 6 7 7 6 6 6
11 9 10 10 10 11 11 11 12 12 13 13 11 3 3 4 6 5 4 1 2 3 3 8 9 8 7 7 4 4 7 8 9 7 4 4 0 0 1 2 2 1 1 1 2 2 4 2 2 3 4 3 0 1 1 1 3 1 1 3 2 1 1 0 0 2 2 1 0 3 3 4 6 8 4 4 4 4 4 6 4 4 5 4 6 6 8
11 9 9 10 10 11 11 11 11 12 12 13 10 2 3 6 6 7 6 4 2 5 6 6 5 7 7 7 5 4 2 4 3 3 1 2 2 1 0 2 2 3 2 3 2 1 3 3 2 2 3 0 3 3 4 0 2 2 2 4 2 1 3 3 2 1 1 1 4 4 2 5 8 7 5 6 5 4 4 5 6 4 4 4 7 6 8
10 9 9 9 10 10 10 11 11 11 11 11 8 3 3 5 7 6 4 3 2 5 5 4 3 3 4 3 2 7 2 2 1 4 5 3 2 3 3 3 1 2 3 2 2 2 1 1 2 1 1 2 3 2 3 2 2 6 5 2 1 2 1 1 0 0 3 1 3 5 5 6 8 9 7 6 4 2 2 5 4 4 4 6 4 5 7
10 8 8 9 9 10 10 11 11 11 10 12 10 6 6 5 3 4 4 4 4 3 3 5 4 3 3 5 2 2 4 2 6 0 2 3 1 1 0 1 2 2 2 1 1 3 1 0 2 1 2 2 3 2 3 3 1 3 3 4 2 2 5 1 1 1 2 0 1 4 4 4 6 9 9 8 6 5 5 6 6 5 5 6 6 6 7
9 8 9 9 9 9 10 10 11 11 10 11 10 4 4 4 7 6 3 2 2 2 3 2 4 9 9 6 5 3 6 6 3 6 4 2 6 4 0 3 2 3 1 2 4 2 2 2 1 1 1 2 6 2 2 2 2 0 2 0 1 1 0 1 2 3 1 1 3 5 3 4 4 4 5 7 8 7 7 6 6 5 5 7 5 4 6
9 8 8 9 9 9 10 10 11 11 11 10 6 4 4 6 7 4 3 2 4 2 2 2 4 4 10 10 10 6 1 3 3 2 2 5 4 2 3 3 1 3 2 1 1 0 0 1 1 2 1 1 1 2 2 2 2 1 2 0 2 3 2 4 2 1 0 1 2 5 2 1 5 6 6 5 3 5 4 6 7 7 6 6 6 5 4
8 8 8 8 9 9 9 10 10 11 10 11 7 5 4 4 5 2 2 2 2 3 3 3 4 5 9 10 8 2 3 4 5 2 2 5 5 4 2 2 4 2 2 2 2 2 2 2 0 2 1 2 3 2 4 3 2 2 2 3 2 2 1 2 2 1 1 1 2 3 1 3 4 5 6 6 5 4 4 2 2 5 5 7 6 6 5
8 7 7 8 8 9 9 10 10 11 12 10 6 6 4 6 6 1 5 1 1 2 3 4 6 5 2 1 7 3 1 2 3 1 2 4 4 2 4 3 1 0 1 3 3 2 2 1 1 1 1 1 1 2 3 2 1 2 2 1 2 2 3 2 1 1 3 4 3 5 3 3 3 4 5 5 4 4 3 1 1 4 8 7 6 7 9
7 7 8 7 7 7 8 9 10 10 10 6 4 2 1 3 4 5 5 4 2 2 2 3 3 1 6 4 4 1 4 2 3 4 6 8 10 9 8 7 6 7 5 3 2 2 2 1 1 1 1 2 1 1 0 2 2 2 3 4 4 1 1 0 2 5 3 0 2 3 4 3 2 2 1 3 4 4 2 3 3 5 3 1 5 7 6
7 7 7 8 7 7 8 9 9 9 9 4 2 1 2 3 1 4 7 5 4 2 3 1 4 4 3 1 2 6 3 2 0 8 9 7 5 5 4 4 4 3 3 2 2 1 1 0 1 1 0 2 1 2 2 1 2 2 4 5 3 3 2 1 2 1 2 1 1 1 3 3 2 1 3 2 5 4 3 3 4 3 4 5 2 1 3
7 7 8 8 8 7 8 8 8 7 3 4 2 1 2 1 1 6 8 6 4 3 2 3 3 1 1 1 2 5 8 5 7 4 3 2 2 2 4 4 3 2 3 2 1 2 2 3 2 3 2 2 2 1 1 2 5 6 3 5 2 2 1 1 2 1 1 1 2 3 4 4 1 1 1 3 2 1 1 3 4 3 4 4 5 0 0
7 8 8 7 8 8 8 8 6 4 3 7 12 12 13 15 13 9 7 5 3 2 2 1 3 2 1 1 3 6 10 3 6 5 2 3 2 2 2 2 2 1 4 3 1 1 1 1 2 1 1 3 1 1 2 6 8 5 5 2 3 1 3 3 4 3 2 4 3 1 1 1 3 3 4 4 4 2 1 2 3 4 4 4 5 4 1
8 7 7 8 8 8 7 6 8 7 6 3 1 3 4 8 6 7 5 1 2 2 2 2 2 2 0 0 2 2 5 3 2 2 2 3 2 1 1 1 2 1 3 2 0 0 0 1 1 1 1 1 1 1 3 4 4 3 2 4 3 1 2 2 1 4 2 1 2 1 2 3 1 1 3 3 3 3 3 3 3 3 4 3 3 4 3
6 6 7 8 7 6 9 8 4 3 2 4 1 4 4 6 3 1 2 1 2 2 2 1 1 2 1 1 1 1 4 2 0 1 0 0 2 1 1 0 2 0 1 1 2 3 2 1 2 1 2 3 1 2 4 2 3 3 4 1 3 3 1 2 0 2 0 0 1 1 2 2 2 2 2 1 2 3 5 4 4 3 4 4 4 4 4
5 6 7 7 9 7 5 3 3 2 2 0 3 2 7 6 3 3 4 3 2 2 1 1 0 0 0 1 1 1 1 1 1 2 1 1 0 2 1 0 2 2 2 2 2 3 3 1 2 3 3 2 2 1 5 8 7 3 3 4 5 1 2 1 2 2 1 1 2 2 3 3 3 1 2 1 1 0 1 2 3 3 5 5 4 4 4
5 6 8 8 5 3 2 2 3 3 2 3 5 6 2 2 2 3 4 2 2 1 2 0 2 2 3 2 1 1 1 2 1 1 1 1 0 1 1 1 2 1 1 2 3 2 2 2 1 2 1 1 3 6 6 5 4 4 3 4 5 3 1 4 2 2 3 3 3 2 2 3 3 1 2 2 3 1 1 2 3 3 3 4 3 3 2
5 6 4 3 2 2 2 2 2 3 8 9 7 2 1 2 3 3 2 3 3 3 3 1 2 1 1 2 2 2 1 1 4 2 1 1 1 1 2 1 1 0 3 1 1 3 3 1 2 3 3 2 1 7 8 7 7 7 6 2 4 5 4 3 2 1 3 2 1 3 4 4 4 3 2 2 2 3 3 1 2 2 3 3 2 2 2
3 3 3 2 2 1 1 1 3 4 2 2 2 2 2 3 2 3 3 2 3 3 3 3 4 4 4 5 1 3 3 1 2 2 2 3 2 1 0 1 1 0 1 1 1 0 1 2 1 0 3 3 2 2 1 2 5 6 7 7 7 6 6 6 6 5 4 3 3 2 1 2 4 6 5 4 4 3 2 3 3 3 3 3 3 3 4
3 3 2 2 2 2 2 3 4 2 2 2 2 2 2 3 2 0 3 2 2 1 1 3 2 3 6 3 2 2 2 2 2 1 1 2 1 2 2 1 2 1 2 2 1 2 1 1 1 1 2 1 2 2 2 1 2 2 2 2 2 6 6 4 3 3 3 4 5 7 5 4 4 5 6 5 4 4 3 3 3 3 4 4 3 2 3
4 4 2 1 2 3 4 4 3 1 2 2 1 3 1 1 3 1 1 1 1 1 2 2 2 2 3 3 2 2 1 1 2 2 1 1 1 1 1 2 0 1 3 0 2 2 1 1 0 1 1 1 3 2 3 3 1 1 2 3 4 6 7 6 5 5 5 4 3 4 5 5 5 5 5 6 6 5 4 4 3 4 5 5 5 4 5
3 2 4 5 6 2 3 3 3 2 2 2 1 1 2 1 2 1 1 2 1 1 2 1 2 2 2 5 3 3 1 1 1 1 1 1 2 1 1 1 1 1 1 1 2 2 1 0 0 1 1 2 2 3 3 3 3 3 4 5 6 6 6 6 6 5 5 6 5 4 3 4 5 4 5 5 5 4 5 4 3 3 5 4 4 4 4
13 7 4 4 3 3 2 1 2 2 0 1 2 2 2 1 1 1 2 1 0 2 2 2 0 1 1 2 2 3 2 1 1 2 2 1 1 0 0 1 2 1 3 3 1 1 1 1 1 1 2 2 2 3 4 4 4 4 4 4 4 5 5 6 7 8 6 6 7 7 5 5 7 7 7 6 4 5 5 4 5 5 5 5 6 6 5
5 3 3 2 2 1 1 1 1 1 3 0 1 1 3 3 2 1 2 1 1 2 2 2 3 1 1 2 2 2 1 0 1 1 2 0 0 1 1 1 1 2 2 1 2 2 2 2 1 2 1 2 3 3 1 3 4 5 6 6 5 5 5 6 7 7 6 4 5 5 5 5 5 6 5 4 4 5 4 4 3 1 2 6 6 7 7
2 2 1 1 0 1 1 1 2 1 2 2 2 3 1 4 1 1 0 1 2 1 3 3 1 2 2 2 2 2 1 1 1 1 1 1 2 2 2 1 0 1 2 3 1 5 3 2 4 3 1 1 0 3 3 3 3 4 5 5 6 6 6 6 6 6 7 5 6 6 6 5 5 5 4 4 5 6 6 6 3 5 7 8 7 6 6
3 1 1 1 2 2 0 1 0 1 3 3 2 1 2 2 1 1 2 3 3 1 1 1 2 1 4 3 2 2 2 2 2 2 1 1 1 1 1 2 2 3 2 1 1 2 3 3 4 3 2 3 4 5 5 5 5 5 6 8 6 7 8 8 7 7 8 7 7 7 7 7 7 6 5 4 4 4 4 4 6 8 8 9 9 8 7
3 3 1 1 1 1 1 2 3 4 3 2 1 1 1 0 2 2 3 3 1 0 1 2 2 2 3 1 1 2 2 2 1 2 2 2 0 1 1 1 2 1 2 0 4 4 3 4 3 3 2 3 3 4 5 5 6 7 7 8 8 9 9 9 9 10 10 10 9 9 8 8 9 9 8 7 5 3 3 1 4 6 7 10 10 9 8
1 2 0 1 2 1 4 5 4 1 3 4 2 1 0 0 1 3 3 2 1 2 1 2 3 2 4 1 1 2 2 2 2 0 1 1 1 2 1 2 1 1 2 3 3 4 4 3 4 2 2 3 3 5 5 6 8 9 10 10 10 10 9 9 9 9 10 10 9 9 8 7 7 6 5 5 4 3 3 6 6 6 6 6 7 9 8
3 1 0 1 2 2 4 2 2 1 2 1 3 2 2 2 2 3 3 2 2 1 0 2 0 1 1 2 0 2 2 2 1 1 1 1 1 2 2 2 3 2 4 2 5 3 4 3 3 2 3 4 4 5 6 7 8 8 9 10 9 9 9 9 8 7 8 11 10 8 8 8 7 6 4 2 2 2 1 5 10 9 9 10 10 10 9
1 1 1 1 4 5 6 4 3 2 3 1 1 2 1 1 3 2 3 1 1 2 3 4 0 1 0 1 0 0 1 1 1 0 1 3 3 2 2 3 3 2 3 3 4 4 3 2 3 3 4 3 5 5 7 8 10 9 9 9 8 8 9 10 10 8 8 9 10 10 9 6 5 3 3 3 3 4 0 3 6 6 7 10 11 12 11
1 1 2 3 6 5 5 6 5 4 3 3 1 1 0 2 2 1 1 1 3 3 1 3 3 2 0 1 1 1 0 0 2 2 3 2 1 2 3 3 4 5 5 5 5 4 4 4 3 3 2 3 4 5 6 8 9 9 8 7 8 9 9 9 8 8 6 6 7 8 6 5 2 1 3 2 3 6 3 4 7 7 6 6 7 8 8
0 1 4 4 6 9 7 1 1 1 3 5 4 1 2 4 2 3 2 3 4 3 4 0 0 1 1 0 1 0 0 1 2 3 2 3 2 2 2 3 4 4 5 5 4 4 4 4 3 2 1 2 4 5 6 7 8 8 9 9 9 9 9 8 6 5 5 4 4 4 3 3 4 7 7 7 6 7 7 7 8 9 7 6 5 4 4
Wind_Direction
336 337 337 338 340 341 343 345 344 348 350 3 3 310 291 286 305 287 246 122 226 225 286 195 141 209 78 175 205 335 230 341 97 279 47 310 313 114 358 17 35 100 239 323 52 71 72 6 58 227 92 73 28 16 22 6 19 8 21 343 337 318 12 345 307 300 118 152 166 134 192 36 358 266 239 292 34 70 93 151 153 102 105 86 80 63 145
336 337 337 338 339 340 342 343 346 349 9 352 303 288 321 306 285 286 117 181 193 248 220 316 231 81 78 334 65 352 344 348 14 11 67 344 48 14 97 173 188 279 89 74 338 91 112 320 259 274 58 41 357 51 29 21 37 12 30 22 304 10 343 22 316 6 27 13 360 0 356 19 298 280 216 66 38 39 70 102 20 87 135 139 125 132 154
338 337 337 338 338 339 341 342 342 350 349 347 320 339 308 286 241 228 209 208 204 235 238 191 336 100 171 239 156 168 149 35 328 344 32 325 56 282 84 40 329 20 350 58 252 82 18 186 77 63 49 94 7 65 67 38 63 357 331 261 281 55 299 40 54 39 58 76 59 312 303 270 286 279 297 74 47 54 39 41 43 89 314 93 106 100 92
339 338 338 339 338 339 340 339 342 345 346 330 254 264 307 314 334 298 224 195 203 219 329 276 58 7 258 71 115 305 104 135 183 335 338 8 316 4 325 145 198 91 303 285 293 132 125 33 4 277 114 144 47 6 79 78 55 339 322 357 354 61 297 78 62 109 59 214 212 244 234 224 206 255 308 62 59 57 100 108 86 106 160 104 147 137 146
340 339 339 339 340 340 340 340 338 343 343 338 221 256 227 306 256 330 358 332 344 44 160 11 92 5 14 102 297 133 37 132 108 343 33 126 330 30 15 7 314 101 283 213 308 19 344 160 197 70 93 344 8 314 330 75 28 344 346 21 349 45 25 30 88 337 263 246 20 348 352 12 348 311 270 27 66 56 27 56 88 141 92 56 100 137 143
341 341 339 341 342 341 342 342 341 337 343 342 236 315 236 281 317 359 322 316 299 10 18 336 99 92 243 75 284 337 85 48 58 117 54 7 69 321 93 255 50 68 85 47 35 12 330 44 56 39 57 348 16 292 1 31 2 14 43 38 67 65 25 333 346 303 294 337 325 338 345 20 341 318 338 330 97 92 5 47 75 121 131 147 162 148 133
342 342 340 343 344 343 345 346 344 342 334 340 208 271 317 343 328 333 3 331 350 41 19 324 26 46 4 344 332 99 14 83 76 355 79 51 30 345 65 17 36 12 85 55 107 91 24 2 11 18 321 23 356 357 41 18 357 12 35 62 48 34 11 344 355 343 279 189 327 21 9 19 353 39 52 19 26 25 48 24 53 118 128 142 144 129 115
343 343 340 344 346 345 348 348 351 345 339 327 189 36 352 23 347 345 333 333 285 18 236 253 98 90 33 351 22 13 64 75 57 58 355 97 98 261 62 67 39 174 60 103 98 70 96 327 330 23 358 337 25 9 42 5 8 4 24 12 24 70 330 359 6 1 340 359 2 356 272 350 353 349 50 44 18 358 23 64 114 122 134 128 126 109 96
344 343 341 344 346 349 349 354 357 349 344 26 6 30 22 334 339 317 310 315 342 350 318 277 228 130 186 114 43 164 87 92 344 68 357 30 38 20 99 62 58 52 74 65 69 79 16 56 55 6 308 40 351 46 331 1 347 327 0 358 23 77 285 300 307 56 320 318 297 246 285 281 269 358 338 62 360 300 66 12 67 77 120 123 115 115 126
343 343 342 344 348 349 352 359 1 357 337 28 345 15 346 338 326 318 315 303 291 283 233 261 346 46 24 22 57 31 80 42 8 66 35 85 22 21 46 55 93 78 61 48 32 18 19 24 13 351 342 3 7 67 50 10 2 7 24 10 347 343 331 333 79 6 304 285 302 284 218 273 316 269 262 313 33 14 352 336 164 109 132 133 136 134 144
342 344 342 344 347 350 355 359 8 7 1 36 353 332 342 11 334 330 337 324 310 294 16 342 86 167 147 176 150 46 78 50 58 10 91 51 85 5 35 23 63 72 68 24 22 328 353 316 330 359 282 35 294 182 212 203 277 11 7 354 301 331 5 313 344 178 243 275 273 207 268 216 239 28 4 246 238 152 252 280 89 93 106 122 137 144 140
342 343 343 344 347 350 354 357 5 16 18 331 285 271 324 345 305 302 326 324 297 324 140 105 19 59 80 45 63 72 65 60 84 322 73 46 48 50 70 77 14 100 58 333 308 155 306 207 221 194 296 53 356 29 48 3 83 23 310 320 316 346 47 321 331 16 306 333 307 105 246 252 200 32 30 359 233 163 200 312 111 97 117 119 117 127 134
339 343 343 343 346 350 352 354 2 6 9 341 289 276 316 331 327 328 334 315 314 335 341 53 214 73 86 122 71 57 50 69 65 48 77 59 75 83 29 55 72 85 262 169 199 282 253 188 70 311 88 45 95 235 226 207 94 158 245 236 59 14 19 327 317 206 304 353 350 111 218 295 44 48 33 338 35 50 132 40 25 82 111 119 128 138 131
338 342 344 343 345 349 352 354 358 1 2 354 319 304 290 343 11 350 8 358 322 316 325 357 62 61 37 63 74 103 113 67 25 6 96 232 97 60 80 51 54 296 119 64 347 46 332 72 83 265 158 144 25 327 315 126 154 216 108 54 354 38 338 34 347 272 203 210 296 172 177 63 70 68 77 23 42 43 81 116 38 62 107 115 124 128 122
337 341 343 343 344 348 351 355 358 358 358 350 271 292 316 4 2 360 295 291 313 305 344 21 63 75 46 20 50 135 129 137 164 108 19 345 87 34 49 64 10 30 26 354 338 240 238 212 219 172 160 159 166 202 331 259 102 52 47 28 359 93 104 32 73 299 224 269 340 25 12 170 271 135 110 25 58 66 86 84 96 83 90 92 121 121 116
335 341 342 342 345 348 350 355 360 359 1 352 334 348 302 9 351 332 319 278 314 324 10 357 22 78 108 88 286 322 22 237 141 149 143 311 86 166 100 23 50 339 299 167 190 331 289 312 279 98 153 228 121 150 181 132 157 135 128 83 297 159 193 110 155 288 350 317 150 221 129 283 266 28 58 68 68 76 66 69 47 262 132 141 127 117 107
333 338 341 342 344 347 349 356 358 0 1 8 343 322 299 355 5 339 327 312 288 297 277 266 3 19 300 146 257 283 155 42 332 30 56 263 129 127 108 116 210 338 22 355 271 260 302 258 270 242 140 215 156 82 105 12 65 134 156 147 286 7 330 332 355 274 249 284 17 277 137 206 271 59 55 59 69 55 65 72 286 262 133 145 147 133 114
330 335 339 341 344 346 349 354 358 358 358 357 344 298 292 299 345 332 302 311 334 286 14 30 16 15 34 332 47 354 346 86 328 103 152 253 60 279 136 56 187 105 357 295 325 289 269 268 278 327 74 20 100 73 105 125 110 187 174 157 157 169 293 191 234 201 260 307 291 83 15 326 311 71 70 51 46 71 88 156 213 304 41 67 89 89 99
325 332 336 340 342 344 348 353 357 359 360 359 337 272 230 311 347 355 303 307 357 302 318 323 77 242 37 307 50 346 351 41 173 319 163 163 253 202 86 168 82 313 39 337 8 293 287 270 266 251 137 313 66 159 133 91 215 299 351 142 180 188 183 200 245 287 252 214 224 219 113 151 86 56 61 18 46 94 159 201 292 17 48 60 84 91 94
323 327 333 337 339 342 347 352 355 359 359 5 360 301 287 290 294 46 25 355 322 303 303 351 12 351 21 316 328 41 330 294 36 251 296 275 264 312 111 320 346 38 165 87 272 242 272 285 82 22 317 129 322 22 108 201 138 183 244 291 273 186 155 194 184 216 292 352 298 105 167 272 2 131 41 17 101 203 247 82 45 58 50 60 79 92 87
320 323 327 333 336 339 345 350 355 357 358 2 357 329 327 288 42 36 35 354 312 324 295 14 350 345 330 344 3 353 334 357 354 8 343 46 25 51 45 345 154 176 43 298 305 327 351 346 352 338 340 80 219 66 192 129 206 233 191 195 253 49 86 210 220 70 180 185 197 213 238 84 42 72 123 335 117 164 95 79 68 48 64 58 68 63 75
314 317 323 327 332 336 342 349 353 356 356 356 341 279 267 335 11 3 328 244 246 246 277 311 304 299 306 304 312 328 340 5 41 27 25 357 338 38 107 197 260 324 117 343 331 360 26 345 334 17 6 343 84 250 156 124 254 231 127 87 345 275 130 124 137 295 81 71 201 252 295 86 87 100 119 113 70 55 76 91 91 86 73 93 77 71 69
311 314 318 321 327 334 340 346 351 355 355 356 354 331 305 322 332 330 321 317 259 260 259 261 258 258 263 259 264 317 322 15 80 105 94 55 333 237 259 359 356 9 49 50 73 33 22 14 12 352 296 43 20 325 329 182 269 104 172 208 180 38 132 202 73 313 153 135 131 156 151 110 112 104 111 98 79 66 84 97 75 52 84 83 121 113 96
307 308 312 317 323 329 335 342 348 350 352 351 348 316 304 314 293 318 337 258 276 314 293 236 222 271 252 319 175 164 240 205 254 73 76 52 47 339 49 43 310 21 44 50 63 42 30 313 293 29 274 277 11 349 322 343 25 352 313 171 263 242 117 84 110 63 65 264 196 164 155 123 118 118 100 97 102 101 58 69 74 125 97 86 78 102 109
302 303 307 314 319 325 330 337 342 346 347 348 340 286 251 269 285 5 345 350 358 2 325 329 292 9 9 116 360 297 178 40 112 216 144 110 106 72 351 227 104 123 78 360 42 20 71 72 327 318 300 333 39 292 14 45 309 29 24 331 27 337 8 22 200 346 144 68 121 68 89 121 120 135 136 144 140 105 70 87 80 60 72 96 98 93 93
296 298 302 306 315 320 327 332 338 341 344 346 337 322 328 312 315 303 277 272 284 269 300 301 334 359 341 330 228 65 83 126 163 166 176 208 163 180 67 64 36 69 41 27 55 9 46 329 8 342 357 310 27 4 352 53 249 247 301 305 269 172 181 306 154 196 264 181 56 11 69 90 94 84 105 144 139 125 116 108 112 112 99 110 122 129 139
291 291 295 305 310 316 322 329 334 339 338 337 326 304 287 294 297 314 24 359 320 232 178 276 342 5 345 325 325 97 138 351 11 5 136 179 215 162 158 133 122 117 104 355 148 26 132 344 336 284 356 19 357 289 313 339 26 2 331 224 3 338 352 328 2 307 68 10 356 317 146 160 26 31 41 50 75 104 122 147 152 157 160 154 148 172 181
289 284 290 296 304 310 319 326 331 334 335 332 307 276 261 266 282 321 41 345 358 350 340 312 301 320 324 307 303 225 89 198 182 226 282 266 215 190 184 153 145 136 175 134 258 180 183 231 251 38 40 26 10 353 5 316 335 297 220 10 357 101 233 335 23 22 107 268 35 17 102 120 53 14 8 32 33 65 99 132 166 173 180 176 167 168 172
282 281 285 292 297 306 316 324 329 332 332 322 291 284 256 242 255 347 47 26 273 284 279 271 270 264 261 293 305 9 38 279 9 1 286 294 292 236 162 146 149 140 58 54 29 46 65 59 69 24 85 212 151 315 23 323 322 258 87 25 21 45 360 43 76 86 49 42 352 13 44 49 358 19 4 5 23 16 27 39 37 192 189 187 188 185 185
267 272 280 288 294 303 315 323 329 329 336 323 301 271 229 122 43 46 7 344 330 313 287 330 318 333 352 319 290 255 287 90 88 304 8 35 31 26 32 54 43 47 67 90 125 91 41 1 97 135 138 198 149 188 141 202 207 228 158 145 145 148 313 23 98 145 188 140 11 351 349 348 325 306 321 5 347 37 29 27 11 9 341 275 204 195 175
261 269 277 280 285 296 309 320 326 328 322 299 292 257 220 186 66 22 5 341 344 327 302 262 266 321 283 241 295 335 346 348 60 74 66 61 49 42 54 79 58 54 91 51 53 99 113 122 82 116 218 229 130 160 220 212 256 266 187 168 172 192 199 219 297 103 98 110 167 267 280 287 293 334 302 246 58 18 358 334 350 357 335 331 350 96 183
258 266 272 278 286 299 309 319 321 323 292 274 301 3 52 22 329 328 323 307 306 270 262 299 287 236 252 53 344 349 352 37 64 65 47 19 56 22 55 45 90 58 94 97 79 145 197 179 180 183 200 149 129 232 235 235 247 244 164 135 118 107 73 329 318 313 142 173 164 223 211 228 180 56 25 43 41 49 5 318 319 331 334 332 305 201 19
255 265 269 281 290 302 310 303 302 293 292 312 297 267 263 269 275 280 284 279 260 260 275 275 261 306 273 355 307 32 360 344 43 355 53 335 88 291 86 82 73 78 105 110 171 173 343 19 87 78 64 104 167 243 234 227 239 241 257 210 137 203 217 199 208 219 55 42 47 88 358 25 327 351 359 349 348 321 262 290 301 316 334 338 322 299 253
259 264 277 285 297 303 300 302 290 289 276 278 244 172 191 206 232 241 269 302 283 276 272 262 280 267 100 38 275 311 35 20 57 354 353 321 23 329 144 100 45 4 180 183 111 4 187 199 203 113 60 237 154 337 261 253 258 270 237 111 143 230 273 216 63 72 91 55 12 18 36 341 303 279 285 288 279 268 243 223 234 277 285 285 301 293 261
258 272 281 293 297 295 292 288 285 227 269 248 117 72 101 168 189 250 233 293 282 193 202 220 345 290 340 352 260 315 10 20 316 196 196 337 310 14 45 88 79 7 168 357 206 184 185 176 123 153 221 95 117 244 250 286 315 356 356 60 146 141 319 325 129 126 105 199 206 253 250 246 265 267 274 347 360 12 354 339 319 286 268 263 255 262 289
261 274 284 286 284 282 276 215 224 250 230 296 84 136 141 179 164 226 234 256 282 318 285 69 146 242 325 298 324 34 42 266 225 71 43 82 282 45 352 357 236 206 102 178 222 174 193 137 126 237 110 115 218 294 343 358 356 14 25 23 14 51 321 269 305 329 124 257 272 260 250 260 258 1 342 293 251 219 315 308 295 289 282 278 272 265 246
263 279 280 276 276 224 234 258 181 197 3 64 112 104 39 283 198 253 214 212 175 251 288 312 245 217 178 207 286 99 146 256 117 132 137 219 155 124 186 134 219 158 211 216 202 187 106 202 260 256 223 71 25 11 13 1 357 344 24 359 358 340 199 277 18 5 300 304 342 313 344 352 360 6 329 345 343 338 310 292 308 301 289 285 297 303 4
296 287 270 237 224 261 237 157 82 127 106 99 124 146 173 216 202 170 195 212 163 161 206 202 277 66 150 238 229 138 170 226 185 171 168 219 222 187 186 202 272 296 244 196 75 83 115 192 197 213 100 88 52 27 9 9 14 7 339 335 13 336 333 8 339 311 318 307 327 16 6 332 319 311 297 288 286 281 259 214 255 265 257 253 228 157 173
271 247 238 252 272 229 70 123 79 82 291 207 194 266 197 191 221 206 178 152 130 207 180 208 218 184 190 222 203 143 237 333 281 176 232 161 189 154 45 242 275 268 285 250 124 239 229 209 169 87 81 358 360 351 4 61 44 28 13 6 6 358 359 3 355 346 337 330 314 294 236 273 294 294 290 272 255 248 243 203 213 229 217 211 191 196 188
225 221 230 194 236 75 119 117 143 168 234 245 191 254 255 180 230 190 130 168 196 117 150 217 215 200 218 232 224 189 178 246 266 303 48 179 183 272 168 244 104 237 262 261 100 166 265 324 33 61 105 27 303 300 303 335 112 127 108 239 247 286 284 295 300 288 303 315 322 312 305 278 268 285 297 297 298 289 285 258 203 192 171 189 187 163 146
215 252 247 32 73 149 153 152 168 220 232 250 218 203 295 232 199 199 158 241 238 166 209 202 172 219 190 189 211 250 130 255 255 248 197 257 76 259 201 237 83 251 252 167 157 235 109 116 194 95 61 167 248 283 295 299 263 218 228 230 246 252 263 268 271 282 283 267 261 282 287 291 293 287 285 289 296 295 282 271 238 198 190 198 204 181 154
339 303 324 304 288 18 120 167 219 239 217 232 236 283 232 228 100 277 265 271 135 194 205 246 166 172 221 211 197 170 161 235 341 291 295 214 136 221 290 97 175 207 296 48 159 129 102 124 231 107 184 218 223 239 253 264 271 261 253 244 246 248 249 255 265 271 273 275 268 264 273 280 278 276 281 281 275 275 278 280 263 209 195 194 167 149 155
287 240 228 266 233 205 180 232 194 231 188 355 45 343 294 281 168 284 184 221 343 267 168 228 237 267 77 53 22 25 62 154 222 187 208 215 156 193 207 204 196 169 232 214 167 103 118 195 133 105 213 204 205 216 227 234 244 245 261 261 251 247 250 260 260 262 264 279 286 282 277 287 293 285 273 261 269 280 274 253 239 229 194 165 154 147 137
291 274 241 224 260 219 95 315 209 33 357 287 143 217 226 223 142 176 193 196 202 227 143 214 144 206 240 143 183 137 126 12 240 266 248 84 204 233 251 244 201 195 190 189 162 183 121 80 78 175 209 195 191 220 261 290 267 259 261 261 272 292 303 306 306 305 298 298 294 295 295 281 277 282 289 291 281 277 286 282 311 348 133 134 148 146 141
268 187 263 2 332 242 66 320 286 135 215 215 220 268 317 343 49 127 249 141 221 255 140 219 131 216 252 124 250 157 223 144 101 223 221 186 234 175 213 301 294 229 220 247 195 130 115 161 174 131 126 285 285 281 283 284 322 311 303 299 291 285 283 286 291 293 291 288 279 276 272 277 275 270 275 277 278 272 269 269 151 172 184 154 148 144 151
228 172 142 104 336 297 166 241 177 262 248 228 227 321 345 56 27 272 245 253 253 260 209 135 244 175 267 167 246 133 191 159 182 178 186 157 231 243 169 215 198 242 249 235 234 71 97 100 88 89 52 19 353 345 343 341 328 328 322 304 308 306 299 293 289 291 291 289 289 287 279 270 270 270 260 256 261 281 298 275 166 168 166 156 154 157 156
285 277 210 141 145 239 190 235 212 217 269 329 21 100 109 205 248 291 272 264 265 79 3 82 284 255 291 295 252 226 170 110 252 154 175 242 275 304 184 232 252 240 266 42 65 122 119 93 80 60 34 9 337 337 335 332 323 312 306 303 295 290 289 283 281 281 277 273 272 271 272 273 273 271 267 267 260 219 227 109 154 177 187 164 154 150 148
288 270 4 103 247 211 218 237 259 341 14 342 21 11 87 174 279 253 268 266 326 31 358 291 263 194 215 134 216 283 324 140 232 144 93 248 195 231 274 239 240 273 37 89 117 82 93 78 76 71 38 353 355 346 335 330 316 315 316 310 306 301 296 288 278 264 264 265 259 258 259 265 271 274 274 268 258 225 211 159 170 167 161 149 145 136 128
281 345 316 244 248 270 281 296 104 140 244 240 263 252 184 89 275 248 247 305 6 274 193 260 321 58 309 147 328 42 305 67 283 175 196 217 216 231 231 290 307 69 46 44 86 76 80 92 99 73 22 9 356 336 332 328 326 321 317 312 308 302 296 286 280 286 299 289 278 259 251 252 254 259 251 219 204 222 148 166 169 174 162 153 141 124 114
265 260 247 276 296 283 261 259 265 184 145 251 281 282 349 286 255 302 348 328 204 218 252 251 138 6 138 81 358 289 272 260 310 342 250 249 256 270 341 49 52 90 116 88 99 92 92 84 64 41 25 359 345 342 330 334 332 330 321 314 313 312 305 299 294 276 261 258 264 261 252 245 249 236 174 177 144 92 193 194 162 157 142 138 129 124 129
257 256 267 238 251 280 318 328 344 351 4 353 340 321 263 265 249 190 50 291 282 280 260 251 211 195 202 91 154 209 182 70 261 238 240 271 1 5 70 93 83 94 107 101 99 100 98 75 46 46 3 354 339 342 337 339 340 334 327 320 313 311 308 303 303 297 276 262 270 268 254 238 239 152 151 168 146 152 156 91 89 89 89 92 112 138 148
294 263 256 258 242 251 255 178 87 9 321 306 302 262 238 250 169 151 190 263 282 270 273 100 191 262 124 118 58 11 342 228 221 244 251 81 342 66 71 82 109 92 101 112 110 101 78 74 81 52 18 358 1 344 350 348 347 346 344 333 331 321 319 315 314 307 303 280 238 205 208 231 155 157 164 168 172 160 153 146 149 152 162 162 166 175 150